Date,TemperatureHighF,TemperatureAvgF,TemperatureLowF,DewpointHighF,DewpointAvgF,DewpointLowF,HumidityHigh,HumidityAvg,HumidityLow,PressureMaxIn,PressureMinIn,WindSpeedMaxMPH,WindSpeedAvgMPH,GustSpeedMaxMPH,PrecipitationSumIn
2013-1-1,37.9,16.3,-0.6,15.2,-1.9,-16.4,46,44,39,23.24,23.12,14,2,14,0.00
2013-1-2,38.1,21.3,10.2,15.0,2.3,-6.9,45,43,39,23.21,23.15,13,4,13,0.00
2013-1-3,27.9,20.6,11.8,7.1,1.6,-5.4,45,43,41,23.27,23.15,19,6,19,0.00
2013-1-4,41.7,18.4,1.8,18.4,-0.4,-14.7,45,43,39,23.27,23.18,9,1,10,0.00
2013-1-5,51.8,19.6,0.3,26.2,0.3,-16.0,45,43,36,23.36,23.24,9,1,9,0.00
2013-1-6,49.1,23.6,8.1,23.8,3.8,-8.9,45,42,37,23.30,23.00,10,1,10,0.00
2013-1-7,39.2,23.2,8.6,16.3,3.7,-8.4,45,42,39,23.09,22.97,13,2,14,0.00
2013-1-8,50.2,27.6,6.6,24.9,7.0,-10.2,45,41,37,23.24,23.03,15,3,15,0.00
2013-1-9,48.7,34.1,21.0,23.6,12.4,2.0,43,40,37,23.33,23.15,13,2,13,0.00
2013-1-10,29.5,21.8,19.4,10.3,2.9,0.7,44,43,41,23.15,22.74,16,1,16,0.00
2013-1-11,34.0,17.2,0.5,12.4,-1.3,-16.3,45,43,40,22.94,22.77,17,4,17,0.00
2013-1-12,35.6,10.3,-6.7,13.5,-7.6,-22.9,45,43,40,22.94,22.86,12,1,15,0.00
2013-1-13,36.7,10.9,-6.7,14.3,-6.9,-22.5,45,44,40,22.97,22.86,15,1,15,0.00
2013-1-14,22.6,7.1,-4.4,3.4,-10.0,-20.3,45,45,43,23.09,22.92,13,2,13,0.00
2013-1-15,26.6,12.5,-7.6,6.4,-5.4,-23.5,45,44,42,23.27,23.06,18,3,18,0.00
2013-1-16,42.4,20.6,4.3,18.9,1.3,-12.4,45,43,39,23.30,23.21,10,2,11,0.00
2013-1-17,36.3,25.3,13.8,14.3,5.5,-3.7,45,42,40,23.33,23.24,11,2,12,0.00
2013-1-18,40.5,22.1,6.6,17.3,2.7,-10.2,45,43,39,23.30,23.21,9,1,9,0.00
2013-1-19,46.4,23.4,5.4,22.0,3.7,-11.4,45,42,38,23.30,23.18,11,2,11,0.00
2013-1-20,24.1,19.1,14.9,4.3,0.4,-3.1,44,43,42,17.72,17.72,0,0,0,0.00
2013-1-21,47.3,24.7,7.5,22.2,4.8,-9.4,45,42,37,17.72,17.72,13,2,13,0.00
2013-1-22,55.9,31.5,9.0,28.8,10.1,-8.1,45,41,35,17.72,17.72,10,1,10,0.00
2013-1-23,59.2,33.5,13.8,31.4,11.8,-3.6,45,40,35,17.72,17.72,9,1,9,0.00
2013-1-24,51.3,37.6,30.2,25.9,15.9,9.4,45,41,37,17.72,17.72,15,1,15,0.00
2013-1-25,54.5,41.3,35.8,28.1,20.7,16.8,52,44,36,17.72,17.72,7,0,8,0.00
2013-1-26,41.5,38.8,36.7,27.5,24.1,18.0,60,55,45,17.72,17.72,10,1,10,0.00
2013-1-27,43.2,37.4,32.0,30.5,24.3,18.5,62,59,49,17.72,17.72,18,3,18,0.00
2013-1-28,41.2,29.0,17.4,20.1,10.9,-0.4,59,46,39,17.72,17.72,13,1,14,0.00
2013-1-29,34.3,21.5,9.7,12.4,2.4,-7.4,46,43,40,17.72,17.72,16,4,17,0.00
2013-1-30,48.6,27.4,8.2,23.3,7.0,-8.7,46,42,37,17.72,17.72,13,2,13,0.00
2013-1-31,51.1,30.0,14.2,25.4,9.7,-2.3,48,42,37,17.72,17.72,10,1,10,0.00
2013-2-1,62.8,32.5,13.6,33.9,11.6,-2.8,48,42,34,17.72,17.72,13,1,13,0.00
2013-2-2,56.3,33.5,19.6,28.9,12.3,2.2,46,41,35,17.72,17.72,10,1,10,0.00
2013-2-3,46.8,34.0,26.6,22.0,12.7,7.4,45,41,37,17.72,17.72,9,1,10,0.00
2013-2-4,55.8,33.9,20.3,28.8,13.2,4.2,55,42,35,17.72,17.72,11,1,11,0.00
2013-2-5,62.4,35.6,18.0,33.5,13.9,0.7,47,41,34,17.72,17.72,8,1,8,0.00
2013-2-6,54.5,34.5,23.4,28.1,13.3,4.2,46,41,36,17.72,17.72,13,2,13,0.00
2013-2-7,57.6,33.9,19.0,30.1,13.2,2.4,50,43,35,17.72,17.72,11,1,11,0.00
2013-2-8,47.3,33.7,26.6,22.0,12.3,6.6,43,41,37,17.72,17.72,21,4,25,0.00
2013-2-9,35.1,25.6,20.7,13.2,6.0,1.7,45,43,40,17.72,17.72,17,4,17,0.00
2013-2-10,29.7,22.4,4.6,8.9,3.5,-12.2,45,43,41,23.30,17.72,13,4,13,0.00
2013-2-11,37.9,11.9,-3.1,15.1,-6.0,-19.1,45,44,39,23.42,23.27,10,1,10,0.00
2013-2-12,39.6,15.1,-6.9,16.3,-3.4,-22.6,46,43,39,23.54,23.42,10,1,11,0.00
2013-2-13,44.6,24.7,3.2,20.6,4.7,-13.3,45,42,38,23.51,23.48,10,2,11,0.00
2013-2-14,44.2,27.0,8.4,20.3,6.7,-8.5,46,42,38,23.59,23.48,17,3,17,0.00
2013-2-15,50.5,34.5,23.2,25.1,12.6,3.5,42,40,37,23.71,23.59,14,3,14,0.00
2013-2-16,55.8,31.7,12.2,28.8,10.3,-5.1,45,41,35,23.71,23.51,9,1,9,0.00
2013-2-17,55.2,33.0,14.5,28.6,11.5,-2.9,45,41,36,23.51,23.27,17,3,17,0.00
2013-2-18,60.1,32.1,14.5,32.4,10.7,-2.9,45,41,35,23.45,23.36,11,1,11,0.00
2013-2-19,53.8,32.2,16.5,27.5,10.9,-1.1,45,41,36,23.39,23.03,15,2,15,0.00
2013-2-20,33.3,26.7,20.1,12.1,7.0,1.2,47,43,41,23.18,22.97,11,3,11,0.00
2013-2-21,37.9,26.0,13.5,15.2,6.7,-3.5,46,43,39,23.30,23.18,11,3,11,0.00
2013-2-22,46.0,23.3,5.5,21.5,3.8,-10.8,46,43,38,23.45,23.30,15,2,15,0.00
2013-2-23,51.4,27.8,9.0,25.9,7.3,-8.1,45,42,37,23.45,23.18,17,3,17,0.00
2013-2-24,31.6,24.4,16.5,10.5,4.7,-1.6,44,42,41,23.39,23.18,25,4,25,0.00
2013-2-25,54.1,29.7,9.1,27.8,8.8,-7.9,45,41,36,23.48,23.36,13,2,13,0.00
2013-2-26,45.1,28.7,17.1,20.7,8.1,-1.2,44,41,38,23.48,23.30,18,4,18,0.00
2013-2-27,40.3,27.9,18.9,17.3,7.4,-0.1,43,41,39,23.59,23.45,14,4,14,0.00
2013-2-28,47.1,31.7,21.0,22.0,10.5,2.0,43,41,37,23.71,23.56,13,3,13,0.00
2013-3-1,56.8,35.3,15.1,29.5,13.1,-2.9,44,40,35,23.71,23.68,15,3,15,0.00
2013-3-2,66.2,46.7,19.6,36.1,22.0,1.2,45,38,33,23.74,23.56,10,2,10,0.00
2013-3-3,59.9,40.5,25.0,32.2,17.2,5.1,42,39,35,23.59,23.36,15,3,17,0.00
2013-3-4,59.4,41.7,26.1,31.7,18.2,6.1,42,39,35,23.54,23.33,17,3,17,0.00
2013-3-5,59.4,37.1,19.2,31.7,14.7,0.9,44,40,35,23.59,23.48,9,1,10,0.00
2013-3-6,63.3,40.2,22.5,34.5,17.1,3.7,44,39,34,23.48,23.36,13,2,13,0.00
2013-3-7,62.6,39.4,20.8,33.9,16.4,2.4,44,39,34,23.39,23.33,20,2,20,0.00
2013-3-8,38.5,31.5,22.8,17.2,11.8,4.5,50,43,39,23.33,23.12,11,1,11,0.00
2013-3-9,36.1,28.3,20.3,14.1,8.8,2.8,51,43,40,23.42,23.21,3,0,3,0.00
2013-3-10,45.3,32.8,21.4,21.1,11.7,2.4,54,41,38,23.59,23.42,14,3,15,0.00
2013-3-11,58.1,33.4,11.5,30.6,11.8,-5.3,46,41,35,23.59,23.48,9,1,10,0.00
2013-3-12,57.9,37.0,18.7,30.5,14.9,1.4,46,40,35,23.65,23.54,17,2,17,0.00
2013-3-13,63.0,41.6,21.4,34.2,18.4,3.5,47,39,34,23.68,23.62,9,2,10,0.00
2013-3-14,68.9,47.6,26.2,38.5,22.5,6.1,42,37,33,23.71,23.62,10,2,10,0.00
2013-3-15,76.8,49.2,27.1,43.8,23.7,7.1,42,37,31,23.65,23.48,17,2,17,0.00
2013-3-16,70.5,45.4,30.6,39.3,21.1,10.0,43,38,32,23.48,23.33,24,2,24,0.00
2013-3-17,64.9,44.4,27.3,35.3,20.8,8.7,48,39,33,23.42,23.30,23,4,23,0.00
2013-3-18,66.6,43.7,25.0,36.6,19.5,5.1,42,38,33,23.48,23.39,15,2,15,0.00
2013-3-19,63.9,43.6,29.8,35.0,19.7,8.9,41,38,34,23.56,23.42,11,1,11,0.00
2013-3-20,64.2,44.5,26.6,35.1,20.2,6.2,42,38,34,23.56,23.36,19,3,19,0.00
2013-3-21,67.6,47.6,29.5,37.4,22.7,8.7,41,37,33,23.36,23.27,17,3,17,0.00
2013-3-22,29.5,27.1,25.3,8.5,6.7,5.5,42,41,41,23.27,23.27,0,0,0,0.00
2013-3-23,45.9,31.1,23.5,21.7,10.0,3.8,42,41,38,23.45,23.39,10,1,10,0.00
2013-3-24,58.1,35.6,15.4,30.6,13.4,-2.6,44,40,35,23.45,23.36,18,2,18,0.00
2013-3-25,65.7,39.5,18.5,35.8,16.4,-0.3,43,39,33,23.48,23.42,12,2,12,0.00
2013-3-26,63.3,43.3,25.2,34.5,19.4,5.3,42,38,34,23.48,23.36,15,2,15,0.00
2013-3-27,66.4,43.0,23.9,36.4,19.1,4.2,42,38,33,23.48,23.39,13,2,17,0.00
2013-3-28,64.8,43.9,25.2,35.3,19.8,5.3,42,38,33,23.56,23.45,13,2,13,0.00
2013-3-29,70.0,47.9,28.9,39.3,22.8,8.2,41,37,32,23.59,23.54,10,2,10,0.00
2013-3-30,65.8,46.8,29.5,36.0,22.0,8.7,41,37,33,23.59,23.51,13,1,13,0.00
2013-3-31,72.7,48.0,27.5,41.2,22.9,7.4,42,37,32,23.54,23.45,13,2,13,0.35
2013-4-1,64.9,44.9,28.4,35.2,20.6,7.7,42,38,33,23.45,23.36,17,3,19,0.00
2013-4-2,62.6,42.6,23.2,33.7,18.8,3.5,42,38,34,23.45,23.36,15,3,18,0.00
2013-4-3,64.0,43.9,24.4,35.1,19.9,5.1,43,38,34,23.56,23.45,18,2,18,0.00
2013-4-4,72.1,48.4,23.9,40.7,23.1,4.2,42,37,32,23.59,23.51,10,1,10,0.00
2013-4-5,70.3,51.1,30.9,39.3,25.3,10.0,41,37,32,23.51,23.39,19,3,19,0.00
2013-4-6,71.8,51.0,32.2,40.2,25.2,11.1,41,37,32,23.48,23.39,15,2,15,0.00
2013-4-7,70.7,49.7,29.5,39.3,24.2,8.7,41,37,32,23.42,23.27,15,2,15,0.00
2013-4-8,48.9,40.0,33.1,23.8,17.1,12.0,41,39,37,23.27,22.89,23,4,25,0.04
2013-4-9,48.2,36.1,28.8,23.2,14.2,8.0,43,40,37,23.30,22.97,18,3,18,0.08
2013-4-10,53.1,39.6,26.6,26.7,16.6,6.2,42,39,36,23.45,23.30,22,4,22,0.00
2013-4-11,67.5,44.2,25.3,37.2,19.9,5.5,42,38,33,23.45,23.30,14,2,16,0.00
2013-4-12,66.7,45.8,24.1,36.6,21.2,4.3,42,38,33,23.39,23.33,11,1,12,0.00
2013-4-13,69.6,50.4,26.8,39.3,24.7,6.8,42,37,33,23.39,23.24,18,5,20,0.00
2013-4-14,68.9,53.3,38.7,38.5,27.0,15.9,39,36,33,23.27,23.18,17,5,17,0.00
2013-4-15,64.4,50.6,39.7,35.0,25.0,16.8,39,37,33,23.21,23.18,18,6,22,0.00
2013-4-16,58.8,46.3,31.1,31.2,21.8,10.2,41,38,35,23.21,23.15,24,6,24,0.00
2013-4-17,48.2,36.1,26.1,23.2,13.9,6.1,42,40,37,23.45,23.21,18,4,18,0.00
2013-4-18,50.7,32.6,15.3,25.2,11.1,-2.7,44,40,37,23.59,23.45,16,3,19,0.00
2013-4-19,59.7,31.3,13.8,31.9,10.0,-3.7,45,41,35,23.59,23.45,10,1,10,0.00
2013-4-20,68.9,46.7,25.3,38.5,21.9,5.5,42,37,33,23.51,23.42,17,3,17,0.00
2013-4-21,74.8,51.0,25.0,42.0,25.0,5.1,42,36,31,23.56,23.48,17,2,17,0.00
2013-4-22,75.0,54.2,28.9,42.4,27.4,8.2,41,36,31,23.51,23.36,17,4,20,0.00
2013-4-23,70.2,49.6,27.9,39.1,24.2,7.2,41,37,32,23.48,23.33,17,3,17,0.00
2013-4-24,72.1,48.0,22.3,40.7,22.7,3.2,43,37,32,23.48,23.42,18,2,18,0.00
2013-4-25,68.9,48.5,28.4,38.6,23.3,7.7,41,37,33,23.54,23.39,14,2,14,0.00
2013-4-26,70.2,49.3,28.4,39.1,23.9,7.7,41,37,32,23.62,23.54,13,2,13,0.00
2013-4-27,78.4,50.6,27.0,45.3,24.8,6.4,41,37,31,23.62,23.54,11,1,11,0.00
2013-4-28,80.6,52.8,27.3,46.2,26.2,6.7,41,36,30,23.56,23.45,10,1,10,0.00
2013-4-29,83.3,58.3,30.2,47.8,30.4,9.4,41,35,29,23.48,23.33,15,2,15,0.00
2013-4-30,80.4,60.2,37.6,46.0,31.9,14.9,39,34,30,23.39,23.33,22,4,22,0.00
2013-5-1,75.9,56.3,34.3,43.1,29.0,12.5,40,35,31,23.65,23.39,14,3,16,0.00
2013-5-2,61.2,47.0,35.4,32.8,22.3,13.5,40,38,34,23.74,23.65,22,6,22,0.00
2013-5-3,76.6,51.5,25.3,43.8,25.4,5.5,42,36,31,23.68,23.42,13,2,13,0.00
2013-5-4,75.2,52.8,27.0,42.5,26.3,6.4,41,36,31,23.45,23.33,18,2,18,0.00
2013-5-5,69.4,50.5,33.1,39.1,24.8,12.0,41,37,33,23.45,23.36,13,2,13,0.00
2013-5-6,61.7,48.1,35.2,33.1,23.2,13.7,41,37,34,23.45,23.39,14,2,14,0.04
2013-5-7,62.8,47.3,34.2,34.0,23.0,14.9,45,38,34,23.42,23.36,17,3,17,0.04
2013-5-8,61.7,44.9,28.6,32.9,22.0,11.6,52,41,34,23.48,23.42,10,2,11,0.00
2013-5-9,60.1,44.6,29.5,32.4,20.6,9.2,42,38,35,23.54,23.45,10,1,11,0.00
2013-5-10,68.7,49.2,27.9,38.5,24.2,8.8,44,38,33,23.65,23.51,11,2,13,0.04
2013-5-11,69.8,52.9,35.1,39.3,26.7,13.2,41,36,32,23.71,23.62,15,2,15,0.00
2013-5-12,75.6,55.6,32.5,42.8,28.5,11.5,41,36,31,23.71,23.62,13,2,15,0.00
2013-5-13,79.3,57.4,34.9,45.5,29.8,13.0,40,35,30,23.65,23.56,8,1,9,0.00
2013-5-14,78.8,56.2,37.2,45.5,29.0,14.7,40,35,30,23.59,23.51,17,2,18,0.00
2013-5-15,77.0,56.1,37.6,44.1,28.9,14.9,39,35,31,23.54,23.45,22,3,23,0.00
2013-5-16,76.3,58.2,33.1,43.5,30.5,12.0,41,35,31,23.51,23.42,15,2,19,0.00
2013-5-17,69.3,54.2,36.3,39.0,27.6,14.3,40,36,33,23.45,23.42,15,2,15,0.00
2013-5-18,70.9,54.5,34.9,39.6,27.8,13.0,40,36,32,23.48,23.42,15,2,15,0.00
2013-5-19,72.9,55.5,35.4,41.3,28.6,13.5,40,36,32,23.48,23.36,21,3,21,0.00
2013-5-20,68.7,52.7,32.7,38.3,26.6,11.6,41,36,33,23.51,23.45,17,2,17,0.00
2013-5-21,75.0,54.6,31.3,42.4,27.7,10.3,41,36,31,23.51,23.39,13,2,14,0.00
2013-5-22,74.8,57.3,33.8,42.2,29.7,12.1,40,35,31,23.42,23.33,15,3,15,0.00
2013-5-23,73.9,60.0,41.7,41.6,31.8,18.6,39,35,31,23.45,23.33,16,3,17,0.00
2013-5-24,74.1,56.3,34.7,41.6,29.1,12.9,40,35,31,23.51,23.45,18,2,18,0.00
2013-5-25,75.2,57.0,37.2,42.4,29.6,14.7,40,35,31,23.54,23.48,12,2,13,0.00
2013-5-26,72.9,55.6,35.1,41.2,28.6,13.2,40,36,32,23.54,23.48,12,3,13,0.00
2013-5-27,73.6,56.9,38.7,41.6,29.6,15.9,39,35,31,23.51,23.39,14,2,15,0.00
2013-5-28,71.2,55.0,35.1,39.9,28.1,13.2,40,36,32,23.39,23.24,15,2,15,0.00
2013-5-29,73.6,57.5,36.0,41.6,30.0,14.0,40,35,31,23.39,23.30,22,3,22,0.00
2013-5-30,77.7,59.9,37.6,44.7,31.7,14.9,39,35,31,23.48,23.36,14,2,14,0.00
2013-5-31,82.2,62.4,41.2,47.7,33.5,18.1,39,34,30,23.54,23.48,11,2,12,0.00
2013-6-1,81.5,64.6,48.6,47.1,35.1,23.5,37,34,30,23.56,23.51,15,3,15,0.00
2013-6-2,82.9,63.6,42.6,47.7,34.3,19.0,39,34,29,23.54,23.42,11,2,11,0.00
2013-6-3,81.5,62.6,42.4,47.0,33.6,19.0,39,34,30,23.54,23.45,14,2,14,0.00
2013-6-4,81.1,61.8,39.7,46.8,33.1,16.8,39,34,30,23.54,23.48,11,2,11,0.00
2013-6-5,82.4,62.7,40.5,47.7,33.7,17.5,39,34,30,23.54,23.48,9,1,11,0.00
2013-6-6,82.9,63.7,42.6,47.7,34.5,19.0,39,34,29,23.54,23.48,12,1,12,0.00
2013-6-7,86.4,65.6,41.5,50.4,35.6,18.4,39,33,29,23.54,23.45,11,2,11,0.00
2013-6-8,91.8,68.6,43.3,53.6,37.7,19.5,38,33,27,23.56,23.45,15,2,17,0.04
2013-6-9,91.2,69.4,46.9,53.6,38.3,22.0,37,32,28,23.59,23.54,13,1,13,0.00
2013-6-10,85.1,66.2,46.4,49.3,36.1,21.6,37,33,29,23.59,23.51,12,2,14,0.04
2013-6-11,86.5,65.4,41.0,50.5,35.6,18.0,39,33,29,23.62,23.51,20,2,20,0.00
2013-6-12,88.5,71.3,50.2,51.5,39.8,24.9,37,32,28,23.62,23.59,13,2,13,0.00
2013-6-13,85.1,66.1,46.9,49.2,36.1,21.9,37,33,29,23.59,23.54,12,2,13,0.00
2013-6-14,83.8,65.3,45.0,48.1,35.6,20.9,38,33,29,23.56,23.48,15,2,19,0.00
2013-6-15,80.1,63.6,44.8,45.9,34.4,20.7,38,34,30,23.59,23.51,15,2,15,0.00
2013-6-16,82.6,63.9,43.0,47.7,34.5,19.1,38,34,29,23.62,23.56,13,2,13,0.00
2013-6-17,82.8,62.9,40.8,47.7,33.8,17.6,39,34,29,23.59,23.54,10,2,13,0.00
2013-6-18,82.4,62.8,38.7,47.7,33.7,15.9,39,34,29,23.54,23.45,12,2,12,0.00
2013-6-19,81.1,64.2,43.7,46.8,34.8,19.8,38,34,30,23.45,23.39,12,3,12,0.00
2013-6-20,81.0,63.8,41.9,46.6,34.5,18.8,39,34,30,23.51,23.42,12,2,15,0.00
2013-6-21,80.6,64.6,44.8,46.3,35.1,20.7,38,34,30,23.54,23.48,13,2,13,0.00
2013-6-22,80.4,61.4,40.5,46.2,32.7,17.4,39,34,30,23.54,23.48,13,2,14,0.00
2013-6-23,79.3,61.7,39.6,45.5,33.0,16.7,39,34,30,23.51,23.42,11,2,17,0.00
2013-6-24,77.2,60.6,41.0,44.1,32.2,17.7,39,34,31,23.51,23.42,13,2,13,0.00
2013-6-25,82.9,64.6,45.9,47.7,35.0,21.6,38,33,29,23.62,23.51,11,2,11,0.00
2013-6-26,86.0,66.9,44.1,50.1,36.6,20.1,38,33,29,23.68,23.59,10,2,10,0.00
2013-6-27,93.9,71.4,47.8,54.9,39.7,22.9,37,32,27,23.71,23.65,10,1,10,0.00
2013-6-28,92.3,74.7,52.3,53.6,42.1,26.2,36,31,27,23.68,23.59,14,2,15,0.00
2013-6-29,91.4,74.9,57.0,53.6,42.4,29.7,35,31,27,23.65,23.56,15,2,15,0.00
2013-6-30,87.3,72.0,57.6,51.2,40.3,30.1,35,32,29,23.62,23.54,11,1,11,0.00
2013-7-1,90.9,74.6,58.5,53.3,42.2,30.9,35,31,28,23.65,23.56,11,2,11,0.00
2013-7-2,85.8,64.5,52.0,49.9,39.1,28.1,56,41,29,23.68,23.59,13,2,13,1.26
2013-7-3,77.2,63.0,50.7,51.3,39.5,31.0,62,44,31,23.59,23.51,11,1,11,0.04
2013-7-4,80.4,67.1,58.5,46.2,37.2,31.6,37,33,30,23.56,23.48,13,1,13,0.04
2013-7-5,80.1,68.4,56.5,45.9,38.5,32.2,42,34,30,23.56,23.51,10,1,10,0.00
2013-7-6,80.4,64.7,57.7,46.2,39.3,32.3,53,40,30,23.56,23.51,8,1,8,0.55
2013-7-7,80.4,66.2,50.5,46.5,39.9,32.9,57,40,30,23.59,23.51,13,0,13,0.00
2013-7-8,86.4,69.2,52.7,50.4,38.9,28.9,41,33,29,23.68,23.59,7,1,10,0.00
2013-7-9,86.9,70.8,54.1,50.8,39.5,27.8,36,32,29,23.71,23.62,9,1,9,0.00
2013-7-10,71.1,71.1,71.1,39.7,39.7,39.7,32,32,32,23.65,23.59,9,1,12,0.55
2013-7-11,71.1,64.2,0.0,39.7,35.9,0.0,32,29,32,23.62,23.56,15,1,15,0.00
2013-7-12,0.0,0.0,0.0,0.0,0.0,0.0,0,0,100,23.62,23.56,10,1,11,0.20
2013-7-13,78.6,35.5,0.0,45.5,20.0,0.0,35,16,31,23.65,23.59,11,1,11,0.00
2013-7-14,80.6,66.1,56.1,46.3,36.9,30.9,39,34,30,23.65,23.56,10,1,10,0.00
2013-7-15,79.3,66.0,56.8,45.5,36.9,31.2,39,34,30,23.62,23.51,11,1,11,0.00
2013-7-16,70.5,62.5,57.4,40.4,36.0,33.1,42,37,32,23.65,23.56,7,0,8,0.16
2013-7-17,71.1,61.8,51.4,40.5,35.9,30.8,47,38,32,23.68,23.62,6,0,6,0.16
2013-7-18,77.5,65.3,53.1,44.4,37.7,32.2,46,37,31,23.65,23.59,16,2,16,0.00
2013-7-19,80.8,66.2,56.1,46.3,38.1,30.2,46,36,30,23.62,23.54,12,1,13,0.31
2013-7-20,76.1,65.0,57.2,46.2,39.6,34.6,52,40,31,23.59,23.48,8,1,8,0.47
2013-7-21,73.6,64.1,57.6,45.7,39.0,32.4,53,40,31,23.62,23.48,11,1,11,0.20
2013-7-22,71.2,63.2,55.9,42.3,36.8,32.5,44,38,32,23.65,23.56,7,1,8,0.24
2013-7-23,73.6,63.4,55.6,41.6,36.8,32.5,47,38,31,23.62,23.56,9,1,9,0.00
2013-7-24,76.6,63.9,51.8,43.6,36.5,29.8,46,37,31,23.62,23.56,8,1,8,0.31
2013-7-25,73.8,62.0,58.5,48.8,42.0,32.8,57,48,32,23.68,23.59,8,0,8,1.02
2013-7-26,75.6,63.3,56.7,54.0,43.4,33.5,63,50,31,23.74,23.65,10,1,10,0.28
2013-7-27,73.6,62.1,55.9,51.3,40.8,32.7,62,47,31,23.71,23.56,13,1,13,0.20
2013-7-28,73.8,60.7,52.3,45.4,37.2,31.2,53,42,31,23.56,23.51,15,1,15,0.39
2013-7-29,76.6,63.6,52.2,47.4,39.3,29.4,61,42,31,23.71,23.56,10,1,10,0.04
2013-7-30,80.4,64.0,48.7,46.2,35.7,26.1,44,35,30,23.77,23.68,9,1,9,0.00
2013-7-31,83.1,65.7,51.8,47.6,37.0,27.6,41,35,29,23.74,23.65,8,1,8,0.08
2013-8-1,78.6,66.1,57.0,45.5,37.9,33.0,44,36,31,23.62,23.62,8,1,10,0.00
2013-8-2,81.1,65.3,54.3,46.6,36.9,31.0,44,35,30,23.65,23.59,10,1,11,0.00
2013-8-3,77.9,64.8,53.4,44.9,36.3,29.3,42,35,31,23.65,23.62,8,1,9,0.00
2013-8-4,76.1,64.9,55.9,43.3,36.3,31.2,40,35,31,23.68,23.62,10,1,10,0.00
2013-8-5,77.9,63.2,51.6,44.9,35.2,28.0,42,35,31,23.65,23.59,8,1,8,0.04
2013-8-6,63.0,59.8,57.2,34.5,32.6,30.4,38,36,34,23.65,23.56,8,1,8,0.00
2013-8-7,73.8,62.3,53.8,41.6,34.2,28.0,40,35,31,23.62,23.56,13,1,13,0.00
2013-8-8,77.2,61.5,45.9,44.2,33.5,22.9,41,35,31,23.59,23.54,9,1,9,0.00
2013-8-9,78.6,60.6,42.6,45.5,32.3,19.0,39,34,31,23.62,23.56,12,1,12,0.00
2013-8-10,78.1,62.2,45.1,45.0,33.4,21.1,38,34,31,23.65,23.59,11,1,11,0.00
2013-8-11,74.5,61.8,49.6,41.9,33.4,24.8,38,34,31,23.65,23.56,12,1,12,0.00
2013-8-12,80.8,64.1,49.3,46.5,35.6,26.0,43,35,30,23.65,23.56,8,1,8,0.04
2013-8-13,82.2,64.1,45.9,47.7,34.8,21.5,38,34,30,23.68,23.59,9,1,11,0.00
2013-8-14,83.3,65.8,46.6,47.8,35.9,21.7,38,33,29,23.65,23.59,12,1,12,0.00
2013-8-15,77.7,64.8,57.0,44.5,35.4,29.7,35,33,31,23.71,23.62,9,1,9,0.00
2013-8-16,81.5,65.6,52.7,47.1,36.0,27.2,37,33,30,23.68,23.65,9,0,9,0.00
2013-8-17,79.2,62.7,55.6,45.5,35.0,29.1,42,36,30,23.71,23.65,12,0,12,0.35
2013-8-18,78.8,63.1,53.2,45.5,36.0,30.8,46,37,30,23.68,23.62,8,0,8,0.00
2013-8-19,76.6,63.5,51.8,43.8,35.2,28.1,42,35,31,23.65,23.59,15,1,15,0.00
2013-8-20,84.4,66.3,48.2,48.7,36.6,24.4,40,34,29,23.62,23.56,11,2,11,0.00
2013-8-21,71.6,64.9,58.8,40.2,35.6,31.2,37,34,32,23.65,23.59,10,1,10,0.12
2013-8-22,76.6,65.9,54.7,43.8,36.3,28.9,38,33,31,23.65,23.56,8,0,8,0.00
2013-8-23,78.4,64.9,52.0,45.3,35.8,27.2,39,34,31,23.62,23.51,12,1,12,0.00
2013-8-24,69.4,60.3,54.3,39.1,32.8,28.3,37,35,33,23.62,23.54,6,0,6,0.08
2013-8-25,63.3,58.8,56.5,41.2,35.2,31.7,47,41,37,23.68,23.59,6,0,6,0.71
2013-8-26,66.7,60.2,56.7,49.6,39.8,35.0,57,47,35,23.68,23.59,9,1,9,0.67
2013-8-27,68.4,58.8,52.7,47.8,37.6,32.4,59,46,33,23.62,23.56,10,1,10,0.28
2013-8-28,74.7,62.3,48.2,44.7,36.5,29.8,55,39,31,23.65,23.56,8,1,10,0.00
2013-8-29,73.9,62.2,52.5,41.6,35.8,30.1,45,38,31,23.71,23.65,8,0,9,0.31
2013-8-30,72.7,62.9,54.9,49.2,39.4,35.0,57,43,32,23.71,23.62,8,1,10,0.08
2013-8-31,69.6,60.4,55.8,44.6,40.1,34.6,57,47,33,23.65,23.56,6,0,6,0.75
2013-9-1,75.0,62.4,51.3,55.4,40.5,32.3,64,47,31,23.62,23.56,9,1,9,0.00
2013-9-2,81.0,64.5,50.0,46.5,37.0,29.5,48,37,30,23.65,23.56,10,1,10,0.39
2013-9-3,82.6,65.8,51.1,47.7,37.0,28.5,44,35,29,23.65,23.59,10,1,10,0.00
2013-9-4,80.8,66.9,56.5,46.5,37.1,30.5,38,33,30,23.68,23.62,9,1,9,0.00
2013-9-5,84.2,64.9,51.6,48.4,36.0,27.6,40,34,29,23.68,23.62,9,0,9,0.39
2013-9-6,79.3,63.5,52.2,45.5,35.2,28.0,40,35,30,23.68,23.56,8,0,8,0.04
2013-9-7,78.1,62.0,54.1,44.9,35.5,29.8,45,37,31,23.62,23.56,9,1,9,0.24
2013-9-8,61.3,57.8,54.9,42.6,38.3,34.1,56,48,42,23.59,23.48,8,0,8,1.42
2013-9-9,57.9,55.9,50.0,45.4,42.5,37.5,63,61,56,23.51,23.39,6,0,6,0.98
2013-9-10,63.7,55.1,49.3,51.7,38.7,31.6,65,55,35,23.51,23.42,8,0,8,0.31
2013-9-11,65.3,56.1,47.8,44.5,35.5,27.3,61,47,34,23.56,23.48,9,1,10,0.43
2013-9-12,71.2,57.7,41.2,39.9,32.3,23.0,53,39,32,23.59,23.48,8,1,8,0.00
2013-9-13,73.4,58.1,45.1,41.6,31.9,24.0,46,37,31,23.54,23.42,10,1,10,0.00
2013-9-14,77.7,58.0,45.5,44.7,32.7,23.8,46,39,31,23.48,23.42,8,1,9,0.24
2013-9-15,71.4,57.6,45.0,40.0,33.0,26.5,54,40,32,23.56,23.48,10,1,10,0.00
2013-9-16,74.3,59.2,45.0,41.7,32.4,23.3,45,37,31,23.59,23.51,10,0,10,0.00
2013-9-17,80.4,61.6,47.3,46.2,34.0,25.0,44,36,30,23.56,23.42,10,1,11,0.00
2013-9-18,78.6,59.6,46.9,45.5,32.2,22.0,42,36,31,23.45,23.39,15,2,15,0.00
2013-9-19,81.1,58.2,41.0,46.6,30.6,18.4,40,35,30,23.51,23.45,10,1,10,0.00
2013-9-20,82.0,58.4,41.4,47.6,30.9,18.9,40,35,30,23.54,23.48,12,1,12,0.00
2013-9-21,53.6,47.1,43.0,27.5,23.0,20.3,40,38,36,23.54,23.36,0,0,0,0.00
2013-9-22,67.1,55.3,40.5,37.1,28.6,17.5,39,36,33,23.42,23.24,17,3,22,0.00
2013-9-23,74.7,51.5,32.5,42.0,25.5,11.5,41,37,31,23.56,23.39,7,1,7,0.00
2013-9-24,70.3,52.2,33.6,39.3,26.1,12.2,41,36,32,23.56,23.45,10,1,10,0.00
2013-9-25,66.9,54.9,40.8,36.9,28.1,17.8,39,36,33,23.45,23.27,17,3,20,0.00
2013-9-26,64.6,54.9,41.9,35.3,28.3,18.6,39,36,33,23.30,23.21,23,4,23,0.12
2013-9-27,61.0,46.2,32.5,32.8,21.7,11.5,41,38,34,23.54,23.30,10,2,10,0.00
2013-9-28,66.7,45.3,27.5,36.8,20.9,7.4,42,38,33,23.62,23.51,8,1,9,0.00
2013-9-29,78.1,51.0,30.2,45.0,25.1,9.4,41,37,31,23.65,23.56,11,1,11,0.00
2013-9-30,80.4,52.3,32.2,46.0,26.1,11.1,41,36,30,23.56,23.48,10,1,11,0.00
2013-10-1,79.5,52.0,32.2,45.5,25.8,11.1,41,36,30,23.54,23.48,12,1,12,0.00
2013-10-2,76.1,51.5,33.6,43.3,25.5,12.1,41,36,31,23.54,23.45,11,1,11,0.00
2013-10-3,73.0,53.0,37.4,41.3,26.7,15.2,40,36,32,23.45,23.30,15,3,15,0.00
2013-10-4,60.6,43.5,31.6,32.8,19.7,10.6,41,38,35,23.62,23.39,14,3,14,0.00
2013-10-5,54.1,44.1,33.1,27.8,20.1,12.0,41,38,36,23.68,23.59,13,4,13,0.00
2013-10-6,68.4,50.3,33.8,38.2,24.8,12.1,40,37,33,23.71,23.62,12,3,13,0.00
2013-10-7,77.4,49.6,28.4,44.2,24.0,7.7,41,37,31,23.65,23.51,10,1,10,0.00
2013-10-8,74.7,51.5,33.8,42.0,25.5,12.1,40,36,31,23.51,23.30,13,2,20,0.00
2013-10-9,66.9,51.7,37.2,36.9,25.9,14.7,40,36,33,23.33,23.21,15,3,15,0.00
2013-10-10,46.9,38.6,30.2,22.0,16.3,10.1,43,40,37,23.42,23.18,12,3,12,0.12
2013-10-11,61.2,41.5,24.4,32.7,18.5,5.7,44,39,34,23.48,23.39,8,1,8,0.00
2013-10-12,71.4,44.2,26.8,40.0,20.1,6.8,42,38,32,23.48,23.42,10,1,13,0.00
2013-10-13,68.4,45.9,28.8,38.0,21.4,8.6,42,38,33,23.45,23.36,16,2,16,0.00
2013-10-14,70.2,45.3,28.8,39.3,20.9,8.0,41,38,32,23.51,23.45,8,1,10,0.00
2013-10-15,68.0,43.0,23.9,37.8,19.1,4.2,42,38,33,23.48,23.36,12,1,12,0.00
2013-10-16,62.6,42.1,29.1,33.9,18.6,8.4,41,39,34,23.54,23.45,9,2,9,0.00
2013-10-17,73.0,42.5,21.2,41.5,18.6,2.2,43,38,32,23.51,23.42,13,1,13,0.00
2013-10-18,63.3,41.6,23.9,34.5,18.0,4.0,42,39,34,23.56,23.45,13,2,13,0.00
2013-10-19,70.9,43.4,21.4,39.4,19.2,2.4,43,38,32,23.56,23.48,8,1,9,0.00
2013-10-20,77.4,54.4,32.9,44.2,27.6,11.6,41,36,31,23.51,23.39,13,2,13,0.00
2013-10-21,67.5,43.2,25.5,37.4,19.2,5.6,42,38,33,23.56,23.45,11,1,11,0.00
2013-10-22,70.7,43.0,23.2,39.3,19.0,3.5,42,38,32,23.59,23.51,10,1,10,0.00
2013-10-23,73.9,45.4,24.6,41.1,20.8,4.8,42,38,31,23.54,23.45,9,1,9,0.00
2013-10-24,68.9,48.0,35.1,38.6,23.0,13.0,40,37,33,23.54,23.45,8,0,8,0.00
2013-10-25,71.2,44.4,27.9,39.6,20.2,7.2,41,38,32,23.59,23.51,9,1,9,0.00
2013-10-26,66.6,44.1,26.8,36.3,19.9,6.8,42,38,33,23.65,23.56,12,2,13,0.00
2013-10-27,76.3,48.6,27.7,43.5,23.2,7.1,42,37,31,23.56,23.24,12,1,12,0.00
2013-10-28,64.0,49.3,41.0,35.0,24.0,18.0,39,37,34,23.27,23.21,18,4,18,0.00
2013-10-29,46.0,40.4,32.4,21.9,17.4,11.3,41,39,38,23.30,23.24,19,4,19,0.00
2013-10-30,34.0,31.2,28.8,13.0,10.7,8.6,43,42,41,23.30,23.27,3,0,3,0.00
2013-10-31,54.5,36.0,26.2,28.1,13.9,6.2,42,40,36,23.48,23.45,6,0,8,0.08
2013-11-1,56.3,36.5,18.5,29.0,14.0,-0.3,44,40,35,23.56,23.48,13,2,13,0.00
2013-11-2,64.6,40.1,21.4,35.3,16.9,2.4,43,39,33,23.56,23.36,10,1,10,0.00
2013-11-3,57.0,39.9,25.9,29.5,16.7,6.0,42,39,35,23.36,23.21,16,2,16,0.00
2013-11-4,55.0,37.6,21.2,28.6,15.0,2.2,43,40,36,23.27,23.18,12,2,13,0.00
2013-11-5,45.7,33.0,20.1,21.5,11.5,1.2,43,40,38,23.54,23.27,11,2,13,0.00
2013-11-6,49.3,30.1,12.7,24.0,9.1,-4.6,45,41,37,23.65,23.54,10,2,10,0.00
2013-11-7,57.4,36.0,19.8,30.0,13.7,0.9,43,40,35,23.65,23.51,11,1,11,0.00
2013-11-8,61.3,37.8,20.5,32.8,15.1,1.5,43,39,34,23.51,23.42,10,1,10,0.00
2013-11-9,75.7,41.3,21.7,43.0,17.6,2.7,43,39,31,23.54,23.48,9,1,10,0.00
2013-11-10,71.1,40.3,22.3,39.6,17.0,3.2,43,39,32,23.59,23.51,7,1,8,0.00
2013-11-11,66.6,39.8,21.7,36.4,16.6,2.7,43,39,33,23.62,23.54,11,2,13,0.00
2013-11-12,63.9,40.5,22.3,35.0,17.2,3.2,43,39,34,23.71,23.62,10,1,10,0.00
2013-11-13,68.7,42.9,26.4,38.5,19.1,6.2,42,38,33,23.65,23.45,10,1,10,0.00
2013-11-14,69.3,43.2,23.7,39.0,19.3,4.0,43,38,33,23.45,23.27,10,1,10,0.00
2013-11-15,57.7,41.4,29.8,30.3,18.2,9.0,43,39,35,23.27,23.06,13,2,14,0.04
2013-11-16,52.9,41.8,35.6,26.7,19.3,15.7,46,40,36,23.24,23.09,17,4,17,0.00
2013-11-17,61.7,41.0,26.4,32.9,17.8,6.4,42,39,34,23.48,23.24,9,2,10,0.00
2013-11-18,67.6,37.8,20.8,37.5,15.2,2.4,44,40,33,23.48,23.42,8,1,8,0.00
2013-11-19,65.3,39.5,24.6,35.5,16.6,5.1,43,39,33,23.42,23.27,11,1,11,0.00
2013-11-20,47.8,40.3,33.3,22.9,18.3,12.1,44,41,37,23.27,23.18,13,1,13,0.00
2013-11-21,44.8,39.9,34.7,24.6,19.8,15.7,47,44,41,23.30,23.27,6,1,6,0.35
2013-11-22,37.8,34.4,32.5,24.7,20.4,14.9,62,56,46,23.33,23.24,13,2,13,0.79
2013-11-23,35.4,33.0,31.8,24.5,22.1,21.0,64,64,62,23.36,23.30,13,1,13,0.63
2013-11-24,41.0,32.5,25.3,30.1,20.7,12.2,65,62,54,23.39,23.30,8,0,8,0.16
2013-11-25,43.7,29.8,18.5,20.0,11.0,1.6,58,46,38,23.51,23.36,15,2,15,0.24
2013-11-26,47.8,34.9,24.4,22.7,13.2,4.7,43,40,37,23.56,23.51,15,3,15,0.00
2013-11-27,46.6,31.8,23.5,22.0,11.6,4.8,50,43,37,23.54,23.36,10,2,10,0.00
2013-11-28,56.7,31.9,18.5,29.3,11.1,1.2,47,42,35,23.48,23.33,8,1,8,0.16
2013-11-29,54.1,32.0,19.0,27.8,11.1,1.2,46,42,36,23.54,23.45,8,1,8,0.00
2013-11-30,38.7,28.9,21.4,16.4,9.6,3.3,46,44,40,23.54,23.48,8,1,8,0.16
2013-12-1,40.8,29.9,23.0,17.6,11.0,5.0,51,45,39,23.59,23.51,8,1,8,0.00
2013-12-2,67.8,36.2,19.4,37.7,14.5,2.2,49,41,33,23.51,23.24,13,1,13,0.16
2013-12-3,58.1,37.6,25.2,30.6,15.2,5.3,43,40,35,23.24,22.97,17,3,17,0.16
2013-12-4,38.7,29.3,16.0,15.7,8.8,-2.1,44,41,39,23.15,22.92,20,2,20,0.00
2013-12-5,42.6,22.1,11.3,19.4,2.9,-6.1,45,43,39,23.21,23.09,12,2,13,0.16
2013-12-6,44.2,17.3,1.9,20.3,-1.3,-14.5,45,43,38,23.30,23.18,10,1,10,0.16
2013-12-7,27.5,19.4,6.3,8.5,1.0,-10.5,46,44,41,23.24,23.06,16,3,16,0.16
2013-12-8,31.3,25.2,18.3,10.2,5.6,-0.3,46,43,41,23.24,23.09,15,4,17,0.00
2013-12-9,23.5,10.2,-5.6,3.8,-7.3,-21.5,45,44,42,23.54,23.24,16,3,17,0.00
2013-12-10,37.4,11.8,-8.1,15.1,-6.4,-24.2,45,43,39,23.54,23.42,8,1,8,0.16
2013-12-11,39.4,19.0,-4.4,16.3,-0.1,-20.3,45,43,39,23.59,23.45,10,2,10,0.00
2013-12-12,43.3,24.4,7.5,19.3,4.6,-9.4,45,42,38,23.59,23.39,10,1,10,0.00
2013-12-13,54.5,28.0,13.3,28.0,7.5,-4.1,45,42,36,23.42,23.30,17,2,17,0.00
2013-12-14,41.7,27.4,12.2,18.6,7.0,-5.1,45,42,39,23.59,23.42,20,3,20,0.00
2013-12-15,53.4,35.7,20.3,27.1,13.6,1.4,43,40,36,23.62,23.56,14,3,14,0.00
2013-12-16,56.8,35.5,21.6,29.3,13.4,2.4,43,40,35,23.62,23.56,10,1,10,0.00
2013-12-17,57.0,32.4,15.8,29.5,10.9,-2.1,45,41,35,23.65,23.51,8,1,8,0.00
2013-12-18,56.8,35.7,22.3,29.5,13.6,3.2,43,40,35,23.51,23.18,7,0,7,0.00
2013-12-19,54.0,36.6,25.0,27.6,14.5,5.1,42,40,36,23.18,23.00,15,3,15,0.04
2013-12-20,43.2,30.9,19.0,19.4,10.9,1.2,46,43,38,23.06,23.00,8,0,8,0.00
2013-12-21,46.0,27.7,17.4,21.7,7.8,-0.3,47,42,38,23.24,23.00,19,2,19,0.04
2013-12-22,48.7,25.7,9.0,23.6,5.7,-8.1,45,42,37,23.51,23.24,10,1,10,0.08
2013-12-23,44.6,29.0,13.6,20.4,8.3,-3.8,45,41,38,23.59,23.48,14,3,14,0.00
2013-12-24,52.2,30.4,11.8,26.2,9.4,-5.4,45,41,36,23.59,23.42,14,2,15,0.00
2013-12-25,41.2,31.6,22.1,18.1,10.4,3.0,43,41,39,23.56,23.51,17,5,18,0.00
2013-12-26,45.3,35.2,27.5,21.2,13.2,6.7,41,40,38,23.56,23.48,15,4,15,0.00
2013-12-27,46.4,35.2,20.8,22.0,13.2,1.9,43,40,37,23.54,23.45,13,3,13,0.00
2013-12-28,53.6,32.1,16.9,27.1,10.7,-1.2,44,41,36,23.45,23.24,12,1,12,0.00
2013-12-29,39.2,27.7,14.4,16.0,7.3,-3.6,44,41,39,23.45,23.24,20,3,21,0.00
2013-12-30,52.9,26.9,10.8,26.7,6.6,-6.4,45,42,36,23.54,23.51,10,1,10,0.00
2013-12-31,66.7,32.9,14.4,36.6,11.1,-3.6,45,40,33,23.51,23.39,10,1,10,0.00
2014-1-1,54.7,34.6,21.2,28.1,12.7,2.2,43,40,36,23.48,23.39,14,2,16,0.00
2014-1-2,57.0,33.1,16.2,29.7,11.4,-1.9,44,40,35,23.51,23.39,8,1,8,0.00